This is the latest recevied weather packets stored in our database for station/object K6POO-1. If no packets are shown the sender has not sent any weather packets the latest 1 day(s).
| Time | Temp. | Humidity | Pressure | Rain* | Wind** | Luminosity | Snow |
|---|---|---|---|---|---|---|---|
| 1778118694 | 15.56° C | 77% | 1018.4 hPa | 0 mm | - | 54 W/m² | - |
| 1778118391 | 16.11° C | 75% | 1018.4 hPa | 0 mm | - | 57 W/m² | - |
| 1778118086 | 16.11° C | 75% | 1018.4 hPa | 0 mm | - | 63 W/m² | - |
| 1778117480 | 15.56° C | 75% | 1018.3 hPa | 0 mm | - | 86 W/m² | - |
| 1778116873 | 16.11° C | 74% | 1018.2 hPa | 0 mm | - | 108 W/m² | - |
| 1778116571 | 16.11° C | 73% | 1018.4 hPa | 0 mm | - | 121 W/m² | - |
| 1778116267 | 16.67° C | 73% | 1018.4 hPa | 0 mm | - | 134 W/m² | - |
| 1778115962 | 16.67° C | 73% | 1018.2 hPa | 0 mm | - | 150 W/m² | - |
| 1778115659 | 16.67° C | 73% | 1018.3 hPa | 0 mm | - | 165 W/m² | - |
| 1778115356 | 16.67° C | 74% | 1018.3 hPa | 0 mm | - | 181 W/m² | - |
| 1778115052 | 16.67° C | 74% | 1018.3 hPa | 0 mm | - | 199 W/m² | - |
| 1778114749 | 17.22° C | 72% | 1018.2 hPa | 0 mm | - | 217 W/m² | - |
| 1778114142 | 17.78° C | 70% | 1018.1 hPa | 0 mm | - | 253 W/m² | - |
| 1778113832 | 17.78° C | 69% | 1018.3 hPa | 0 mm | - | 271 W/m² | - |
| 1778113529 | 17.78° C | 70% | 1018.3 hPa | 0 mm | - | 291 W/m² | - |
| 1778112921 | 17.78° C | 70% | 1018.4 hPa | 0 mm | - | 328 W/m² | - |
| 1778112619 | 17.78° C | 71% | 1018.3 hPa | 0 mm | - | 348 W/m² | - |
| 1778111708 | 18.33° C | 68% | 1018.5 hPa | 0 mm | - | 408 W/m² | - |
| 1778111101 | 17.78° C | 71% | 1018.5 hPa | 0 mm | - | 446 W/m² | - |
| 1778110799 | 17.22° C | 71% | 1018.7 hPa | 0 mm | - | 466 W/m² | - |
| 1778105946 | 18.89° C | 67% | 1019.2 hPa | 0 mm | - | 740 W/m² | - |
| 1778105036 | 18.89° C | 68% | 1019.5 hPa | 0 mm | - | 781 W/m² | - |
| 1778103520 | 19.44° C | 65% | 1019.6 hPa | 0 mm | - | 838 W/m² | - |
| 1778103217 | 20° C | 65% | 1019.7 hPa | 0 mm | - | 849 W/m² | - |
| 1778102914 | 20° C | 64% | 1019.7 hPa | 0 mm | - | 861 W/m² | - |
* Rain latest hour (hover to see other rain measurements)
** Current wind speed in m/s (hover to see current wind gust speed)